GFSGL_925_spd_336.txt.gz
Wind_Speed
11 11 13 14 15 15 16 16 16 14 13 7 4 3 4 6 7 8 12 11 11 10 9 8 7 7 5 5 6 8 10 10 4 3 8 8 9 6 6 6 5 1 4
6 7 9 10 12 14 15 16 16 16 15 15 10 6 4 4 7 7 9 11 13 11 11 9 7 8 8 7 7 8 9 10 7 10 10 12 10 9 7 7 6 5 4
7 6 6 7 9 10 11 13 14 15 15 15 13 10 7 6 5 6 8 8 11 12 12 12 10 8 10 10 9 7 9 10 10 11 9 13 9 13 11 9 9 8 6
12 10 8 7 7 8 9 10 11 13 14 15 14 13 11 8 6 7 9 9 9 11 13 12 11 10 11 10 9 9 10 11 10 10 10 15 12 16 13 11 7 4 1
15 17 17 13 9 8 8 9 9 10 11 13 14 14 12 10 7 7 6 7 9 10 11 14 14 12 11 10 11 11 12 11 13 12 10 10 11 13 17 13 9 6 2
16 18 19 18 14 10 8 8 8 9 11 13 15 16 16 12 9 7 6 7 8 9 11 13 13 13 12 12 12 10 10 12 14 15 13 11 14 14 16 15 12 8 4
18 19 20 18 20 15 12 9 8 9 10 12 14 16 17 15 11 9 7 6 8 10 10 11 14 14 13 13 12 11 10 9 11 14 15 14 14 16 16 15 15 11 4
18 19 19 20 20 20 17 13 10 9 10 11 12 14 16 17 16 11 8 8 8 9 10 9 12 15 15 14 13 12 12 11 11 11 12 10 10 9 17 15 13 12 6
19 19 19 17 18 19 22 18 13 12 11 11 11 12 14 15 15 15 11 8 9 9 9 9 10 13 15 16 16 14 13 11 10 10 9 8 8 9 14 16 17 14 5
20 21 21 19 16 17 20 21 17 15 13 12 12 12 12 12 12 13 11 11 11 10 10 9 10 12 13 16 18 17 16 13 12 10 9 9 10 13 15 15 16 19 4
22 23 22 20 18 16 17 19 20 18 15 14 13 12 12 10 10 12 10 9 10 12 12 13 10 11 13 17 20 19 18 12 12 11 12 12 12 12 14 14 14 15 8
26 27 27 25 21 18 17 18 20 19 18 16 14 13 11 10 9 9 10 9 7 9 12 15 13 9 13 16 19 18 16 12 14 14 13 13 12 14 15 14 14 13 8
27 30 30 29 26 20 18 19 19 21 21 20 16 15 12 9 9 8 8 8 8 7 10 12 13 11 9 15 19 17 18 15 18 18 17 15 11 11 13 15 13 12 9
30 31 31 28 27 24 20 20 22 23 24 25 22 19 15 11 10 8 7 8 11 8 8 11 11 12 10 15 20 21 22 20 20 19 16 14 12 12 14 15 14 12 10
26 27 27 26 25 24 22 22 23 26 26 27 29 25 20 16 12 9 10 12 9 8 9 11 11 12 10 16 21 25 24 22 21 19 18 17 16 14 14 15 15 14 7
26 22 21 22 23 21 21 23 21 24 24 24 25 24 23 20 16 15 14 12 9 7 7 8 9 14 16 18 20 22 25 25 24 21 20 19 19 18 16 15 14 14 10
29 26 22 21 21 21 20 20 21 20 19 24 25 24 23 25 22 18 16 13 11 8 10 12 12 14 17 20 22 23 24 27 26 24 24 21 21 18 18 17 16 13 13
29 28 27 24 22 23 23 23 20 20 20 22 23 24 25 23 21 19 17 13 16 14 14 16 16 17 18 19 23 24 26 27 28 27 26 24 23 23 22 18 18 17 17
27 24 22 22 21 22 22 22 22 22 23 21 19 22 21 18 18 18 16 19 21 21 17 16 18 21 22 21 22 26 28 30 30 30 28 26 25 28 25 23 19 20 21
25 24 24 25 23 23 22 22 23 23 23 22 21 23 20 19 24 28 26 25 24 25 24 21 21 22 25 25 23 26 29 30 30 30 30 29 28 28 26 26 25 24 24
25 24 24 24 23 22 22 22 23 23 23 22 24 23 21 22 26 28 29 29 28 27 24 21 20 23 26 27 27 25 30 30 32 31 31 30 30 30 29 28 27 25 24
24 24 23 23 23 23 23 24 23 24 24 24 24 24 23 26 25 28 31 31 30 29 27 25 24 25 24 25 28 31 30 31 32 32 32 32 31 30 30 29 29 27 27
23 24 24 24 24 24 24 24 24 25 25 25 24 23 23 28 28 27 29 30 28 28 29 27 28 28 26 27 30 33 32 33 36 35 33 33 32 32 32 32 32 30 29
21 21 22 23 22 22 23 23 23 25 26 25 24 24 25 25 26 28 30 30 30 30 30 28 27 27 26 28 31 34 36 36 35 36 34 34 33 33 34 33 34 32 31
20 19 18 18 19 22 22 24 24 24 24 25 25 26 26 26 27 28 28 30 31 31 31 28 28 28 29 29 31 34 36 35 37 35 35 35 35 37 38 37 36 34 32
21 20 18 18 17 17 16 16 20 23 24 25 25 26 27 28 29 28 27 27 27 27 27 28 26 27 29 29 32 34 35 34 38 37 35 36 36 37 37 37 37 36 34

GFSGL_925_spd_339.txt.gz
Wind_Speed
15 16 17 18 18 18 19 19 19 16 15 13 9 5 3 3 5 5 8 9 9 8 8 9 9 7 6 6 7 6 8 9 4 3 7 8 9 7 8 6 4 3 3
10 11 13 15 17 18 18 18 18 19 17 14 11 6 3 1 3 5 5 8 9 9 8 9 9 9 8 6 6 5 6 8 8 9 9 12 10 9 10 9 6 4 3
10 11 10 11 13 15 16 17 17 17 17 15 13 12 9 5 4 3 5 5 8 10 11 13 10 10 9 8 7 7 7 8 10 10 9 12 9 13 11 9 8 7 4
10 9 11 12 12 11 11 13 14 14 15 16 16 15 12 9 7 5 6 6 7 8 10 11 11 12 11 8 9 8 7 8 9 10 11 11 12 15 14 13 8 6 3
16 15 13 12 13 12 11 9 9 10 12 14 15 15 14 8 7 6 5 5 6 8 8 11 12 13 12 10 10 8 8 9 10 11 8 7 10 11 17 14 12 8 6
17 17 17 15 13 13 13 12 9 8 8 10 12 14 14 11 10 7 6 6 6 7 8 9 11 13 13 11 11 9 9 11 13 15 12 10 12 15 18 16 15 11 4
17 18 17 16 15 13 13 14 13 10 8 8 9 11 13 13 12 9 6 6 7 7 8 8 9 12 13 13 12 10 9 9 10 11 15 15 12 15 17 17 17 12 5
16 18 19 19 17 15 13 16 16 14 12 9 8 9 10 11 11 11 9 4 6 6 7 8 9 11 14 14 13 12 11 10 9 9 10 11 12 8 17 19 15 12 9
15 17 19 20 20 19 17 16 16 17 16 12 11 9 9 9 9 9 9 8 7 6 6 6 8 9 11 14 14 13 12 10 9 8 7 6 7 8 12 16 17 14 7
20 21 20 19 20 20 19 17 14 16 18 16 14 11 10 8 6 7 7 8 6 6 6 6 7 9 9 12 16 15 14 12 10 7 6 6 6 10 14 18 16 13 5
25 26 25 22 21 19 19 18 16 16 17 19 18 14 11 8 6 5 5 6 7 7 6 7 7 7 8 11 15 16 15 11 10 9 9 10 9 10 12 14 13 14 6
28 29 29 29 26 23 20 20 18 17 18 21 20 20 14 9 6 4 4 5 6 7 7 7 7 6 6 9 13 14 13 11 12 12 12 11 11 11 11 11 11 15 8
29 32 32 31 28 23 20 21 21 18 19 23 23 24 21 12 9 5 4 5 6 5 5 7 7 4 5 7 12 15 16 16 15 15 14 14 12 12 14 13 12 13 8
29 29 30 28 30 27 21 18 18 19 20 22 23 25 28 20 15 10 6 6 6 7 6 7 5 1 3 5 10 18 20 17 16 15 15 12 11 12 13 14 12 13 9
27 25 24 23 24 24 20 18 18 19 20 21 25 26 27 27 23 15 11 8 8 6 5 5 5 4 4 4 8 18 22 19 17 15 14 13 14 14 13 13 11 13 8
24 23 21 22 22 22 23 27 23 22 23 24 25 26 27 26 24 19 16 13 10 5 7 7 6 5 6 6 10 17 21 21 20 17 16 16 16 16 14 14 13 14 10
26 24 22 21 20 20 20 20 24 25 19 20 22 22 25 26 21 21 19 17 13 9 11 11 10 11 10 8 11 17 20 22 22 21 20 18 17 17 16 18 15 14 9
27 27 25 21 20 20 20 21 21 21 22 21 19 19 20 23 24 22 20 16 17 16 16 15 15 14 15 13 11 15 20 21 23 24 23 21 20 20 19 19 18 15 14
28 25 23 22 21 20 20 21 21 21 22 23 21 23 21 19 19 23 23 24 25 24 21 19 17 16 17 18 17 14 18 22 24 25 26 25 23 23 21 19 18 15 17
26 27 25 24 21 20 20 20 21 21 22 22 22 20 16 18 25 23 21 24 25 26 24 23 21 19 19 18 20 18 17 23 24 25 26 27 25 25 25 24 21 20 20
24 24 25 24 23 22 21 21 21 21 22 22 22 19 18 21 23 25 29 31 32 32 30 26 25 23 22 21 21 21 19 22 25 26 27 27 26 26 26 24 23 20 19
26 26 25 23 24 23 23 22 22 22 23 23 22 21 21 24 22 21 27 31 32 29 28 26 25 24 23 22 18 19 20 22 27 26 27 27 27 27 26 25 25 23 22
23 22 21 23 24 26 25 24 23 23 23 24 23 22 21 25 27 26 25 26 28 27 26 26 28 29 28 26 22 21 21 23 28 28 28 29 28 28 28 27 28 27 26
23 22 21 21 20 20 22 24 25 25 25 25 24 23 23 23 24 25 26 28 29 29 27 27 28 29 31 28 25 23 24 25 26 27 28 29 29 29 28 28 30 30 29
24 23 22 21 21 20 19 18 21 24 24 24 25 25 25 26 25 25 25 26 27 27 28 27 28 29 30 28 25 24 25 27 29 28 28 30 30 30 31 30 31 31 30
24 24 23 23 21 20 20 19 18 18 18 22 25 26 27 27 27 27 26 26 26 27 28 28 30 28 28 26 27 28 26 27 30 29 29 31 31 30 32 31 33 33 33

GFSGL_925_spd_342.txt.gz
Wind_Speed
21 20 18 18 18 18 19 20 20 19 18 15 11 7 5 4 4 5 7 8 8 8 9 9 9 8 7 6 6 7 8 8 4 4 6 8 9 8 7 8 7 5 2
13 15 17 16 17 18 18 18 18 18 18 17 15 12 8 6 6 4 6 7 9 10 9 9 10 8 8 7 7 6 6 7 6 6 8 10 9 9 7 8 8 7 5
11 12 13 16 16 17 18 18 18 17 17 17 18 16 13 11 8 6 6 7 6 8 10 10 10 9 10 9 8 7 6 6 7 6 7 10 7 12 10 9 10 7 5
11 11 11 13 14 14 13 16 16 15 16 17 17 16 14 11 9 8 7 7 8 7 8 9 10 11 11 11 10 9 7 7 7 7 8 8 9 9 12 11 11 10 5
15 17 18 17 14 13 12 11 13 13 14 14 15 15 14 13 12 12 10 9 9 8 7 8 10 11 11 10 10 10 8 8 9 8 6 5 6 7 14 12 13 9 9
14 15 16 18 18 16 13 13 12 12 13 13 13 14 15 14 12 12 11 10 9 8 9 8 8 10 11 11 10 10 9 8 8 9 10 7 11 13 13 15 12 9 3
16 17 18 19 20 20 19 16 14 13 12 12 11 11 13 13 13 12 12 9 9 9 9 9 8 7 9 10 11 10 8 8 8 8 12 14 12 11 13 15 16 12 4
18 21 21 23 22 22 21 19 17 15 14 13 12 11 11 11 12 11 10 11 9 8 8 7 8 8 7 9 10 10 9 8 8 8 9 10 11 8 11 13 16 13 9
22 25 25 24 25 25 24 23 21 19 16 15 13 12 12 10 11 10 9 9 10 10 7 7 7 7 6 8 10 11 11 9 8 7 6 6 7 8 7 12 13 13 5
25 27 27 26 25 25 25 25 24 21 20 17 17 14 13 12 9 9 10 9 9 10 7 6 6 6 5 7 10 11 10 9 8 7 6 5 5 6 8 11 13 13 7
28 27 27 26 27 26 25 25 25 24 22 20 20 19 16 13 10 9 8 8 10 9 9 9 6 6 5 6 9 12 12 10 9 8 6 5 4 7 8 10 10 12 10
27 28 29 28 27 26 25 26 24 24 24 24 21 22 20 16 13 10 9 8 8 9 7 9 10 5 5 5 8 10 10 9 10 10 9 8 6 6 8 9 10 10 12
26 30 30 29 27 23 22 24 24 23 22 22 18 21 24 21 16 14 12 10 8 8 9 8 10 8 5 6 8 10 12 12 13 12 12 10 8 6 8 8 7 9 9
27 27 25 23 24 23 20 19 18 18 19 18 18 17 22 24 21 17 17 14 11 8 7 8 9 7 5 6 5 11 14 13 15 14 13 10 9 9 10 10 9 9 7
24 23 22 20 20 21 19 19 20 22 19 21 21 23 24 24 25 20 19 20 16 11 8 7 5 6 7 6 4 9 15 15 14 13 11 10 11 10 9 9 10 10 5
23 21 20 22 21 20 21 23 20 21 22 22 24 26 29 28 27 22 18 19 19 13 11 8 6 6 5 6 5 7 14 17 16 14 12 11 12 11 10 11 9 11 9
24 26 24 21 21 20 20 20 23 24 20 22 22 23 24 27 23 23 21 19 18 14 17 15 12 9 8 8 7 9 12 15 17 16 15 13 12 11 11 12 13 13 10
23 24 24 23 21 19 19 20 20 21 21 22 19 19 20 21 20 20 22 19 19 19 23 22 18 13 11 10 10 10 10 12 16 17 16 15 14 14 14 14 15 12 13
24 24 23 23 22 21 22 22 21 21 22 22 23 23 21 19 22 22 15 25 22 22 25 25 22 17 14 13 12 14 10 12 14 18 18 17 16 17 16 15 15 15 13
24 24 23 24 24 21 20 19 21 22 22 21 19 20 19 19 24 23 24 16 21 27 27 26 24 21 17 15 13 12 13 13 16 17 19 18 17 18 19 17 17 17 16
24 25 24 24 22 23 22 21 22 22 22 22 23 22 20 22 24 24 26 24 24 20 22 23 22 21 19 16 16 15 15 14 15 19 20 19 18 19 20 18 17 18 16
22 22 23 23 24 23 24 25 23 23 24 24 26 25 20 23 23 21 21 23 24 24 24 24 26 24 22 18 15 15 15 18 17 17 21 20 19 18 18 19 19 19 17
21 23 23 24 23 22 21 22 24 24 24 25 26 27 26 25 26 29 30 29 24 19 19 21 24 26 24 20 17 16 18 18 18 17 20 21 20 20 19 20 21 22 22
20 21 22 23 24 23 22 22 23 23 25 25 24 26 28 27 26 26 27 27 26 26 26 25 24 25 26 26 24 21 22 20 18 19 21 23 22 21 20 20 23 24 24
20 21 22 22 23 24 24 23 23 23 22 20 23 25 28 27 27 26 26 25 25 25 25 27 29 28 28 27 27 25 25 22 21 21 21 24 23 22 21 22 23 24 25
21 20 21 22 23 24 24 23 22 22 22 22 20 20 23 26 25 24 24 24 25 25 26 27 27 26 26 25 24 24 25 23 22 22 22 24 24 23 22 23 24 25 26

GFSGL_925_spd_345.txt.gz
Wind_Speed
18 17 17 16 17 18 19 20 20 20 20 19 19 16 13 10 8 8 6 6 8 9 8 8 7 7 6 5 5 5 6 6 4 4 8 10 10 9 7 8 9 6 7
19 21 19 17 17 17 17 18 18 19 20 21 20 18 16 14 11 10 11 9 9 7 6 6 6 7 7 6 4 3 4 6 5 5 8 9 9 10 8 8 9 8 8
19 19 20 19 19 18 15 15 16 15 17 19 20 20 17 16 14 12 11 12 11 11 8 8 6 4 7 6 5 5 4 5 7 6 6 10 10 12 11 10 9 10 8
19 18 19 20 19 18 17 15 13 13 14 14 16 17 17 16 14 14 13 11 11 10 7 7 6 5 5 5 6 6 6 6 7 7 7 7 9 9 13 11 9 10 10
18 19 21 20 19 19 18 17 15 12 12 12 13 13 16 16 17 17 16 14 11 11 9 7 6 6 6 6 6 5 6 6 7 8 5 5 6 6 11 9 11 9 9
17 19 21 23 24 24 23 23 19 15 13 12 11 12 13 16 17 17 16 15 13 11 12 10 8 6 5 6 7 6 6 7 7 8 9 8 10 9 11 11 10 5 3
17 19 22 24 25 27 26 24 23 23 18 15 12 12 11 13 14 16 17 17 15 13 11 11 10 7 5 5 5 5 5 6 6 6 8 10 10 10 10 11 13 9 5
20 21 23 25 26 27 28 27 25 24 23 21 16 13 13 10 12 13 14 15 15 14 10 10 10 9 6 5 5 5 5 6 6 6 6 7 7 8 9 10 10 11 8
25 27 27 26 27 28 28 28 27 26 25 23 20 17 16 13 12 12 12 13 14 14 11 8 9 9 7 5 6 6 7 7 6 5 5 5 4 5 5 7 8 10 2
26 30 29 28 27 28 27 28 27 24 25 24 23 19 17 18 13 12 11 12 13 15 13 10 7 9 9 5 6 8 9 7 4 4 4 4 3 2 3 4 7 9 2
28 30 28 30 29 27 27 27 27 26 25 25 25 22 18 16 16 13 11 10 12 13 14 13 11 8 8 8 6 9 9 7 5 4 2 2 2 3 4 4 5 6 6
25 27 30 30 28 26 25 26 26 24 24 25 25 26 22 17 14 13 12 11 11 12 11 11 10 11 7 8 7 7 8 8 7 6 3 2 2 2 4 5 6 6 6
25 27 28 28 26 23 22 22 23 20 18 19 18 19 22 22 17 13 12 12 13 13 10 10 10 10 8 8 7 6 9 9 9 8 6 5 3 2 4 4 4 5 6
25 25 23 22 24 21 19 17 18 18 18 18 18 18 19 21 22 18 15 13 13 15 13 14 11 7 6 8 7 5 10 10 10 10 7 5 5 5 6 6 5 6 5
24 25 23 19 21 22 19 18 18 19 18 22 22 22 22 23 21 19 20 19 15 15 15 14 13 7 4 4 5 3 8 11 10 9 7 7 7 7 7 8 8 7 4
24 23 24 24 22 21 21 23 18 18 20 20 22 23 26 25 25 23 22 20 18 13 15 14 14 11 7 2 3 4 5 10 12 10 9 7 7 8 8 8 7 8 6
22 24 25 24 23 20 19 19 22 26 20 18 18 19 20 23 23 22 21 20 20 17 18 19 16 15 13 7 4 3 6 6 9 11 11 10 8 8 8 8 9 7 7
21 22 21 22 23 24 23 20 20 20 23 27 25 21 22 23 22 21 21 22 20 20 22 24 22 18 16 13 8 6 4 6 7 9 11 12 11 9 9 9 10 11 9
21 22 22 23 23 23 24 24 23 21 20 24 30 27 25 22 22 21 18 20 21 19 26 25 23 20 17 14 11 8 6 5 7 9 10 12 13 12 11 10 9 9 8
20 20 21 22 24 23 22 22 22 23 23 22 23 28 29 27 26 25 20 18 19 19 22 28 26 24 19 18 14 9 8 8 8 9 11 11 12 14 14 12 11 12 12
19 21 21 21 22 24 24 23 24 23 23 24 26 28 22 23 23 22 22 20 17 21 20 12 19 19 18 16 15 12 11 10 8 9 10 13 13 14 14 13 12 12 11
18 19 21 22 23 23 23 25 23 24 24 25 28 29 22 23 25 25 27 27 22 13 12 17 17 16 17 17 16 14 11 13 12 10 10 11 13 13 13 14 13 13 12
18 20 21 22 23 24 25 25 25 24 23 24 26 27 27 27 27 26 26 26 26 26 23 16 16 20 20 19 18 15 12 12 10 10 11 11 13 14 14 15 16 15 16
20 20 21 23 23 24 25 26 27 27 27 26 22 24 26 27 28 27 26 25 24 22 23 26 25 23 23 22 20 19 17 14 12 11 11 12 13 13 14 15 16 16 16
21 22 22 23 24 24 25 26 27 28 28 27 26 24 23 24 27 27 26 24 23 21 21 23 26 28 28 25 23 22 21 19 16 14 13 13 14 16 16 16 17 17 17
23 22 24 24 25 25 24 25 27 27 27 27 26 25 25 24 23 26 26 24 22 21 20 22 24 25 27 28 27 25 24 21 22 18 16 16 17 18 17 17 17 19 19